This demonstration page uses our WeatherBlox Daily Observations layout. Learn more.

Left ArrowRight Arrow

39.51506, -84.39828

Hourly Observations for June 19, 2020

Temp ( °F °C ) Dew Point ( °F °C ) Humidity (%) Winds ( mph kmh ) Pressure ( in mb ) Visibility ( mi km ) Precip ( " mm )
12:15 am 00:15 Partly Cloudy 65 18.6 65 18.5 99 99 Calm 30.03 1017 10 16.0934 0 0
12:35 am 00:35 Clear with Mist and Fog 64 18 64 17.9 99 99 Calm 30.02 1017 3.5 5.63269 0 0
12:55 am 00:55 Mostly Cloudy with Mist and Fog 64 17.5 64 17.5 100 100 Calm 30.03 1017 1.75 2.816345 0 0
1:15 am 01:15 Clear with Mist and Fog 63 17 N/A N/A Calm 30.02 1017 2 3.21868 0 0
1:35 am 01:35 Mostly Cloudy with Mist and Fog 64 18 N/A N/A Calm 30.02 1017 1 1.60934 0 0
1:55 am 01:55 Clear with Mist and Fog 61 16 N/A N/A Calm 30.02 1017 3 4.82802 0 0
2:15 am 02:15 Mostly Cloudy with Mist and Fog 61 16 N/A N/A Calm 30.02 1017 1.75 2.816345 0 0
2:35 am 02:35 Clear with Mist and Fog 61 16 N/A N/A Calm 30.02 1017 3 4.82802 0 0
2:55 am 02:55 Cloudy with Mist and Fog 61 16 N/A N/A Calm 30.03 1017 1.25 2.011675 0 0
3:15 am 03:15 Cloudy with Haze 63 17 N/A N/A Calm 30.03 1017 4 6.43736 0 0
3:35 am 03:35 Cloudy with Haze 63 17 N/A N/A Calm 30.03 1017 7 11.26538 0 0
3:55 am 03:55 Hazy 63 17 N/A N/A Calm 30.03 1017 4 6.43736 0 0
4:15 am 04:15 Hazy 63 17 N/A N/A Calm 30.03 1017 5 8.0467 0 0
4:35 am 04:35 Mostly Cloudy with Haze 63 17 N/A N/A Calm 30.03 1017 5 8.0467 0 0
4:55 am 04:55 Cloudy with Haze 63 17 N/A N/A Calm 30.03 1017 5 8.0467 0 0
5:15 am 05:15 Cloudy with Haze 63 17 N/A N/A Calm 30.04 1017 4 6.43736 0 0
5:35 am 05:35 Hazy 63 17 N/A N/A Calm 30.04 1017 7 11.26538 0 0
5:55 am 05:55 Clear with Mist and Fog 63 17 N/A N/A Calm 30.04 1017 3.5 5.63269 0 0
6:15 am 06:15 Mostly Cloudy with Fog 63 17 N/A N/A Calm 30.05 1018 0.5 0.80467 0 0
6:35 am 06:35 Sunny with Mist and Fog 61 16 N/A N/A Calm 30.04 1017 2 3.21868 0 0
6:55 am 06:55 Mostly Cloudy with Fog 61 16 N/A N/A Calm 30.04 1017 0.5 0.80467 0 0
7:15 am 07:15 Mostly Cloudy with Mist and Fog 63 17 N/A N/A Calm 30.04 1017 1.75 2.816345 0 0
7:35 am 07:35 Sunny with Mist and Fog 64 18 N/A N/A Calm 30.04 1017 3 4.82802 0 0
7:55 am 07:55 Hazy 66 19 N/A N/A Calm 30.05 1018 5 8.0467 0 0
8:15 am 08:15 Sunny with Mist and Fog 68 20 67 19.5 97 97 Calm 30.04 1017 7 11.26538 0 0
8:35 am 08:35 Sunny 70 20.9 67 19.3 91 91 SW 7 11 30.05 1018 10 16.0934 0 0
8:55 am 08:55 Sunny 71 21.6 67 19.3 87 87 SW 5 7 30.05 1018 10 16.0934 0 0
9:15 am 09:15 Sunny 72 22.2 68 19.9 87 87 SSW 5 7 30.05 1018 10 16.0934 0 0
9:30 am 09:30 Sunny 72 22.4 66 19.1 82 82 WSW 3 6 30.06 1018 10 16.0934 0 0
9:55 am 09:55 Sunny 74 23.1 65 18.6 76 76 Calm 30.06 1018 10 16.0934 0 0
10:15 am 10:15 Sunny 75 23.8 66 18.7 73 73 Calm 30.06 1018 10 16.0934 0 0
10:35 am 10:35 Sunny 76 24.3 67 19.3 74 74 Calm 30.05 1018 10 16.0934 0 0
10:55 am 10:55 Sunny 76 24.7 66 19.1 71 71 Calm 30.05 1018 10 16.0934 0 0
11:15 am 11:15 Sunny 77 25.2 66 18.9 68 68 Calm 30.04 1017 10 16.0934 0 0
11:35 am 11:35 Sunny 78 25.8 66 18.8 65 65 Calm 30.04 1017 10 16.0934 0 0
11:55 am 11:55 Sunny 79 26.3 66 19 64 64 Calm 30.05 1018 10 16.0934 0 0
12:15 pm 12:15 Sunny 80 26.9 64 18 58 58 Calm 30.05 1018 10 16.0934 0 0
12:35 pm 12:35 Sunny 81 27.1 64 18 58 58 Calm 30.05 1018 10 16.0934 0 0
12:55 pm 12:55 Sunny 83 28.2 64 17.8 53 53 N 3 6 30.04 1017 10 16.0934 0 0
1:15 pm 13:15 Partly Cloudy 83 28.5 65 18.3 54 54 WNW 5 7 30.04 1017 10 16.0934 0 0
1:35 pm 13:35 Partly Cloudy 83 28.2 64 17.7 53 53 Calm 30.03 1017 10 16.0934 0 0
1:55 pm 13:55 Partly Cloudy 84 28.7 64 17.6 51 51 W 5 7 30.02 1017 10 16.0934 0 0
2:15 pm 14:15 Partly Cloudy 85 29.5 65 18.1 50 50 E 3 6 30.01 1016 10 16.0934 0 0
2:35 pm 14:35 Partly Cloudy 85 29.6 64 18 50 50 W 6 9 30 1016 10 16.0934 0 0
2:55 pm 14:55 Partly Cloudy 84 28.7 63 17 49 49 Calm 30 1016 10 16.0934 0 0
3:15 pm 15:15 Sunny 86 30.2 63 17 45 45 N 6 9 30 1016 10 16.0934 0 0
3:35 pm 15:35 Partly Cloudy 86 30.1 62 16.7 44 44 Calm 29.99 1016 10 16.0934 0 0
3:55 pm 15:55 Mostly Cloudy 87 30.5 64 17.6 46 46 W 6 9 29.98 1015 10 16.0934 0 0
4:15 pm 16:15 Partly Cloudy 87 30.6 62 16.9 44 44 W 9 15 29.98 1015 10 16.0934 0 0
4:35 pm 16:35 Partly Cloudy 87 30.8 64 17.5 45 45 SW 7 11 29.98 1015 10 16.0934 0 0
4:55 pm 16:55 Hazy 87 30.7 62 16.6 43 43 W 7 11 29.98 1015 7 11.26538 0 0
5:15 pm 17:15 Sunny 87 30.6 62 16.8 43 43 W 3 6 29.98 1015 10 16.0934 0 0
5:35 pm 17:35 Sunny 87 30.7 62 16.8 43 43 WNW 7 11 29.97 1015 10 16.0934 0 0
5:55 pm 17:55 Sunny 87 30.6 62 16.6 43 43 WNW 5 7 29.97 1015 10 16.0934 0 0
6:15 pm 18:15 Sunny 87 30.3 62 16.4 43 43 WNW 3 6 29.97 1015 10 16.0934 0 0
6:35 pm 18:35 Sunny 87 30.4 62 16.8 44 44 WNW 3 6 29.97 1015 10 16.0934 0 0
6:55 pm 18:55 Sunny 86 30.1 60 15.8 42 42 SW 3 6 29.97 1015 7 11.26538 0 0
7:15 pm 19:15 Sunny 86 29.8 63 17.1 46 46 W 5 7 29.97 1015 10 16.0934 0 0
7:35 pm 19:35 Sunny 85 29.3 63 17.1 48 48 Calm 29.97 1015 10 16.0934 0 0
7:55 pm 19:55 Sunny 84 28.7 64 18 52 52 Calm 29.97 1015 10 16.0934 0 0
8:15 pm 20:15 Sunny 81 27.2 69 20.3 66 66 W 3 6 29.98 1015 10 16.0934 0 0
8:35 pm 20:35 Sunny 79 26.1 66 18.7 64 64 Calm 29.98 1015 10 16.0934 0 0
8:55 pm 20:55 Sunny 75 24 67 19.2 75 75 Calm 30 1016 10 16.0934 0 0
9:15 pm 21:15 Clear 74 23.2 68 19.8 81 81 Calm 30 1016 10 16.0934 0 0
9:35 pm 21:35 Clear 72 22.4 68 20 86 86 Calm 30.01 1016 10 16.0934 0 0
9:55 pm 21:55 Clear 73 22.5 67 19.4 83 83 Calm 30.02 1017 10 16.0934 0 0
10:15 pm 22:15 Clear 71 21.9 67 19.3 85 85 Calm 30.02 1017 10 16.0934 0 0
10:35 pm 22:35 Partly Cloudy 71 21.7 66 19.1 85 85 Calm 30.03 1017 10 16.0934 0 0
10:55 pm 22:55 Clear 68 20 66 18.7 92 92 Calm 30.03 1017 10 16.0934 0 0
11:15 pm 23:15 Partly Cloudy 68 19.9 65 18.2 90 90 Calm 30.03 1017 10 16.0934 0 0
11:35 pm 23:35 Clear 67 19.6 65 18.2 92 92 Calm 30.04 1017 10 16.0934 0 0
11:55 pm 23:55 Clear 69 20.7 66 18.7 88 88 Calm 30.03 1017 10 16.0934 0 0

Powered by AerisWeather